Location: Newark
(44.3681°N, 100.3364°W)
Time: 14:12:00
(UTC+00:00)

Vanguard 1 - Pass Details

Date: 21 February 2020
Orbit: 649 x 3833 km, 34.2° (Epoch: 09 April)

Event Time Altitude Azimuth Distance (km) Brightness Sun altitude
Rises 19:19:14 0° 272° (W) 6,847 14.4 34.8°
Reaches altitude 10° 19:24:47 10° 266° (W) 5,319 14.0 34.7°
Maximum altitude 19:37:11 40° 205° (SSW) 2,318 14.3 34.3°
Drops below altitude 10° 19:44:20 10° 138° (SE) 3,078 13.1 34.0°
Sets 19:46:41 0° 130° (SE) 3,767 13.4 33.9°
